RH
84 84 83 82 86 89 93 97 96 95 95 95 94 96 96 95 97 98 97 96 97 89 76 75 64 41 31 25 17 16 13 14 14 17 30 27 28 39 37 38 31 17 13 11 10 12 17 22 18 15 13 13 14 13 12 12 11 11 11 11 10 9 7 6 5 5 4 3 3 4 4 4 3 4 4 5 5 4 9 7 16 32 28 35 51 68 85 91
79 77 78 79 81 84 88 92 94 94 94 94 93 96 97 96 97 96 98 99 99 97 85 84 75 48 39 30 17 19 16 18 29 27 18 17 23 28 29 32 27 20 17 10 9 16 19 17 16 14 12 12 11 10 10 10 10 11 11 11 10 8 7 5 5 4 4 3 3 4 4 5 4 4 5 9 9 8 12 10 21 48 53 59 72 77 86 92
78 77 76 75 77 81 85 88 88 90 92 93 92 93 93 94 96 96 97 97 99 99 92 92 85 58 45 36 22 20 25 38 50 38 20 17 19 17 19 21 18 16 16 11 11 21 21 14 14 12 11 11 10 9 8 8 9 9 10 11 9 7 6 5 4 4 4 3 3 5 5 6 5 4 6 9 13 12 15 11 20 52 65 72 81 82 88 89
65 71 75 77 78 79 81 84 86 87 90 92 92 92 91 90 92 95 95 94 97 99 97 96 91 69 50 42 27 22 44 57 51 38 28 24 23 20 16 14 13 11 14 11 11 22 26 19 15 12 10 10 9 9 7 7 8 8 9 10 9 6 6 4 4 4 4 4 4 5 5 6 6 6 5 5 9 10 15 11 17 51 67 72 79 81 87 88
61 57 60 66 71 77 80 80 81 82 84 87 88 89 91 90 90 92 93 93 94 96 99 97 92 74 55 49 28 28 60 55 38 42 39 34 30 27 21 14 12 10 11 14 16 23 29 27 20 13 11 9 9 9 7 7 6 7 8 8 7 6 5 4 4 4 4 5 5 5 4 5 5 6 5 4 7 8 14 10 15 50 66 69 79 79 85 89
84 74 65 59 55 60 68 75 80 80 80 80 82 85 86 88 88 89 89 90 92 92 97 98 94 78 61 55 33 39 66 46 34 49 43 37 31 28 26 18 13 10 9 22 31 29 27 27 22 15 11 9 10 9 7 7 6 7 7 7 7 6 5 4 4 4 5 6 5 6 4 5 6 6 5 5 7 7 11 9 13 46 58 61 78 81 84 89
93 92 87 80 71 60 53 56 64 71 77 78 80 82 81 83 84 86 86 87 91 91 93 95 95 86 67 59 47 49 62 41 30 39 35 32 28 26 26 20 18 14 13 25 36 32 25 23 20 15 11 10 10 8 7 6 6 6 6 6 6 6 6 5 5 4 7 7 6 7 5 6 5 4 6 5 7 5 7 9 15 43 56 59 76 82 83 88
78 84 86 86 89 86 73 57 49 49 56 65 74 80 80 80 81 83 85 86 89 91 91 90 92 91 78 73 68 59 54 41 32 35 35 33 31 28 25 23 23 21 22 25 28 30 25 19 17 14 10 10 10 9 7 6 6 6 6 6 5 6 6 5 5 4 7 8 7 8 6 6 5 4 6 5 7 5 5 15 24 46 64 66 75 80 82 87
65 76 81 79 82 88 90 82 69 54 42 44 53 69 80 80 81 81 84 86 87 88 87 88 90 89 87 86 74 58 48 37 34 37 36 35 33 30 28 27 25 22 25 26 26 28 25 19 15 13 10 9 9 8 7 6 6 5 5 6 6 6 6 5 5 5 7 8 8 8 7 6 5 5 7 5 7 4 6 25 37 50 66 68 72 74 77 86
74 81 84 80 77 78 84 86 86 77 63 52 41 47 65 75 81 79 82 85 84 85 85 88 89 89 94 90 68 54 45 34 30 31 34 37 35 31 30 29 26 23 23 27 29 26 24 20 14 12 10 8 8 7 7 7 6 5 5 5 5 5 6 6 6 6 6 7 7 7 7 6 5 6 7 5 6 5 6 31 48 50 61 67 72 75 75 84
84 80 71 64 62 67 80 84 87 86 82 80 60 42 44 59 76 79 78 81 80 80 82 87 89 92 97 91 75 57 40 33 33 32 34 38 36 32 30 28 28 25 21 25 30 29 24 20 15 11 9 8 7 7 6 6 6 5 5 5 5 5 5 6 6 6 6 7 7 7 7 6 6 5 6 5 6 5 5 31 52 45 48 60 70 79 80 83
64 59 55 57 53 51 65 78 87 88 86 93 83 59 46 46 61 76 78 77 78 78 80 87 89 93 96 93 84 65 46 38 36 37 41 41 38 35 34 32 31 28 24 23 27 31 26 20 16 12 9 8 7 8 7 7 6 5 5 5 6 6 6 6 5 6 7 8 7 7 8 7 6 4 6 5 5 6 3 26 54 45 39 52 66 78 82 82
49 58 62 73 69 51 50 65 81 86 87 93 86 72 62 49 45 58 71 74 74 75 77 83 87 92 98 93 80 69 62 47 31 35 42 42 39 36 34 34 32 31 28 23 23 28 29 24 18 13 10 8 7 7 7 6 6 6 5 5 7 8 7 6 6 6 6 7 6 7 10 9 6 5 5 4 5 7 3 15 44 49 39 47 64 74 80 82
58 72 65 66 69 57 48 56 74 84 89 92 82 72 68 60 46 44 60 72 70 70 73 77 82 92 98 89 72 61 57 49 42 40 37 38 38 34 33 32 31 30 27 24 21 23 26 25 20 15 11 8 8 7 6 6 6 6 6 6 7 8 8 6 6 6 5 7 6 7 11 9 6 5 4 5 5 7 7 6 24 41 36 38 57 70 76 80
64 68 58 51 53 58 59 54 63 76 83 87 80 70 66 63 54 44 52 65 66 64 69 76 82 90 92 79 62 50 45 50 54 38 27 36 38 32 32 31 29 27 25 23 21 20 22 24 22 17 12 9 8 7 7 7 6 6 8 9 8 8 8 6 5 5 5 6 5 7 10 9 6 5 4 5 4 7 14 12 17 33 34 35 51 64 73 77
73 65 56 49 40 51 65 52 48 60 71 81 79 68 62 60 54 45 44 55 63 60 70 86 87 86 84 66 51 48 46 48 46 33 30 39 38 33 31 28 26 23 23 22 19 20 20 21 21 18 14 10 8 8 9 8 7 7 9 10 8 8 8 6 5 4 5 5 5 7 9 8 6 5 4 4 5 6 12 21 33 41 40 43 48 53 64 71
84 64 50 48 40 43 52 42 40 50 59 72 74 64 59 56 53 50 43 46 52 58 77 90 80 75 71 59 48 46 42 38 37 36 39 38 34 33 31 26 23 20 21 22 19 18 18 19 20 19 15 11 8 8 11 12 11 8 8 9 8 8 8 7 5 4 4 5 6 6 7 7 5 5 4 3 6 4 13 36 52 56 55 57 55 50 56 63
92 65 43 44 47 44 42 39 41 45 52 60 61 61 63 56 52 56 55 54 58 71 87 84 79 76 59 48 46 42 37 32 30 32 34 34 31 31 29 25 22 20 19 19 19 17 16 17 17 17 15 12 9 9 13 14 11 10 9 9 9 8 7 6 5 3 3 5 6 5 6 6 4 5 4 4 4 3 24 48 52 56 60 61 64 62 60 63
97 75 50 43 47 48 46 45 44 46 52 57 60 67 70 58 54 64 71 73 73 80 80 69 78 75 41 31 37 36 37 33 30 30 28 29 30 27 25 24 22 19 17 17 18 17 16 16 17 18 16 13 11 9 10 10 8 9 8 8 9 8 7 6 4 3 3 5 6 5 6 5 5 6 3 5 3 7 36 52 47 53 55 60 72 70 64 65
92 86 69 53 46 47 51 50 47 51 52 61 78 82 69 54 52 62 72 76 74 71 62 52 65 64 38 31 32 29 31 30 29 30 27 25 27 25 22 23 22 18 15 15 17 16 16 19 19 18 16 12 11 9 9 8 7 7 7 7 8 7 7 5 4 3 3 6 7 6 5 5 5 6 4 5 4 13 39 47 44 50 51 60 71 66 67 71
82 84 78 66 53 45 49 51 50 53 52 65 91 88 67 52 45 46 52 61 67 68 65 54 55 57 47 40 33 28 26 24 24 25 26 26 24 23 20 22 22 19 15 13 14 16 17 21 20 15 13 10 9 9 9 8 7 7 7 7 6 7 6 4 4 3 4 6 7 6 6 5 5 5 4 6 7 18 37 44 44 44 42 50 59 62 70 73
77 79 75 71 65 50 44 48 52 52 48 67 93 86 68 58 50 49 51 54 55 60 66 63 58 54 46 40 36 33 29 26 25 22 23 25 24 23 20 21 22 18 14 12 14 19 21 21 17 13 11 9 8 8 8 8 8 8 8 7 7 6 6 5 4 3 3 7 8 6 6 5 5 5 5 5 8 24 41 46 48 49 49 54 60 65 68 71
79 79 78 72 68 62 52 44 45 51 59 81 93 79 65 62 59 64 69 67 59 53 54 57 60 56 47 41 36 33 30 29 28 24 21 21 23 22 19 20 21 17 13 13 16 21 24 20 14 12 10 9 9 7 7 9 9 9 8 8 7 5 6 6 5 3 3 6 7 6 6 5 5 5 6 5 5 22 37 39 46 51 56 65 65 67 72 81
81 83 83 75 69 69 62 49 47 60 76 84 78 66 67 75 76 78 82 78 64 52 48 47 50 51 46 42 38 34 33 31 28 26 22 20 21 22 19 17 18 16 14 13 14 17 20 16 12 11 10 8 9 7 8 10 11 10 8 8 7 5 6 6 5 4 4 5 6 6 7 6 6 5 6 6 2 15 27 34 54 60 59 66 65 73 88 90
80 86 85 81 76 68 65 63 61 69 71 61 57 62 72 82 83 85 87 80 62 45 43 43 41 41 41 39 40 36 32 30 28 26 23 22 22 22 19 16 15 16 14 12 14 16 15 13 11 11 10 8 8 8 8 10 11 11 9 7 6 6 6 4 5 5 6 8 6 6 9 9 7 6 6 6 3 11 22 37 61 69 67 67 67 83 95 85
73 81 85 86 82 72 72 73 69 71 62 50 57 67 77 86 84 86 84 76 62 40 32 38 36 33 35 36 36 33 31 28 25 24 23 22 23 22 19 16 15 14 13 12 13 14 13 11 11 11 10 9 9 8 8 8 11 12 9 6 5 6 6 5 5 5 6 9 7 6 10 11 8 7 6 6 5 6 23 48 59 61 67 66 73 92 90 79
68 75 83 86 84 82 86 83 74 73 63 54 64 74 81 82 76 79 77 69 59 36 23 30 32 28 28 31 31 30 32 28 22 22 21 22 23 21 20 17 15 14 11 11 15 15 12 11 11 10 10 9 9 9 8 8 11 12 8 6 6 6 6 6 5 5 6 8 8 6 8 10 9 8 6 6 7 2 17 51 60 55 60 65 80 95 86 77
68 71 80 85 84 82 87 89 85 81 70 60 71 85 84 71 63 70 76 74 60 37 25 25 29 30 25 25 27 27 26 23 21 22 20 21 22 20 21 18 15 14 10 11 18 15 11 12 12 11 11 10 9 8 8 8 10 9 7 6 6 6 6 5 4 5 5 7 11 8 6 10 9 8 7 4 9 5 7 39 64 59 55 67 84 86 76 72
69 72 79 84 81 75 82 92 90 87 78 67 72 82 76 60 58 70 80 74 50 34 37 37 34 32 25 22 24 24 23 20 20 22 20 21 21 19 21 18 14 12 10 10 14 13 10 11 10 10 11 10 8 8 7 8 8 7 7 6 6 7 6 6 6 5 6 10 14 10 5 9 9 7 9 6 8 9 3 22 60 69 61 74 85 75 66 62
70 71 77 84 82 78 87 93 87 82 79 75 75 79 78 62 54 73 88 76 59 56 57 51 42 33 25 25 25 22 22 20 17 20 20 20 20 18 17 17 15 12 10 9 10 10 10 9 9 9 10 10 8 8 7 6 7 7 7 7 7 8 7 7 7 5 10 15 14 9 6 7 10 7 8 9 8 10 7 9 39 63 70 80 83 72 65 57
70 71 75 82 80 78 89 92 82 77 77 77 76 79 82 61 50 77 83 58 64 82 74 60 56 48 34 27 27 25 22 20 18 19 20 18 18 18 18 19 18 16 13 12 11 10 9 10 10 8 8 9 8 7 7 5 6 8 8 7 8 9 9 9 9 9 15 18 10 8 7 6 10 9 6 8 7 6 8 9 25 50 67 78 76 70 65 56
69 70 70 74 72 73 86 89 83 82 80 76 77 80 76 60 60 77 61 39 62 90 85 74 68 62 52 37 28 24 23 23 19 17 19 19 21 21 21 21 21 22 20 14 13 12 11 10 10 9 8 8 9 8 7 6 6 8 7 9 10 11 14 15 13 14 16 15 9 7 8 7 8 9 6 6 5 5 6 14 29 46 58 67 67 66 63 56
67 65 66 72 77 81 88 87 84 87 84 75 79 83 74 70 70 59 44 54 81 91 86 79 69 62 63 55 38 22 22 25 18 16 18 17 21 22 20 18 16 20 19 15 15 15 14 12 10 11 8 6 8 7 8 8 8 9 8 10 11 12 20 22 16 16 16 13 9 6 7 10 8 8 7 5 6 7 6 11 26 42 54 60 59 60 58 53
61 62 73 77 80 84 86 85 84 85 85 80 81 84 82 80 68 50 52 69 75 73 71 71 69 62 57 58 45 21 19 23 15 16 19 16 21 23 20 18 15 15 15 14 15 15 18 19 13 11 9 7 8 6 8 10 8 8 7 7 10 11 17 20 15 16 17 13 10 9 9 11 9 7 7 6 6 7 7 8 16 34 52 58 58 59 58 59
58 66 85 87 83 83 84 87 85 81 86 85 77 80 84 77 62 57 69 71 62 62 63 58 63 63 53 50 43 22 17 21 17 17 18 17 20 21 20 19 15 13 14 16 16 14 18 19 11 9 10 10 11 9 7 8 7 8 6 6 10 9 11 15 14 15 16 15 13 12 11 9 7 7 6 6 6 5 6 5 9 30 51 57 61 65 66 70
65 76 90 87 83 84 84 87 87 84 87 83 77 78 72 63 61 64 70 70 65 63 62 57 58 64 62 52 44 31 18 18 20 20 19 16 17 18 16 16 14 13 13 15 17 16 17 17 10 10 12 10 12 12 8 7 8 8 7 7 8 6 8 13 16 15 16 20 17 12 11 8 6 9 7 5 7 4 7 15 23 38 53 57 63 68 68 70
78 86 87 81 79 81 82 85 88 89 85 79 82 77 56 49 61 67 66 65 64 58 59 64 64 70 78 66 51 39 25 20 22 21 20 18 16 16 15 14 14 13 11 12 15 15 15 17 13 12 13 11 10 10 9 6 6 8 8 7 6 6 8 11 15 18 18 21 18 11 10 10 9 12 9 6 8 4 9 32 41 39 45 52 59 65 65 65
86 87 87 86 80 78 84 86 87 91 85 77 80 72 51 48 53 58 60 57 55 53 55 66 70 71 79 75 59 41 25 21 23 20 21 20 17 15 15 15 14 12 10 10 13 13 13 17 17 12 13 13 9 10 12 7 4 7 7 5 7 11 13 12 15 19 20 21 20 13 10 10 9 10 8 6 10 7 14 43 53 42 45 54 60 66 66 66
89 88 87 85 76 75 86 87 86 94 88 77 74 63 52 52 45 45 56 50 44 50 54 63 69 66 68 70 65 52 32 22 22 21 19 20 19 15 13 13 12 11 10 9 12 14 14 20 20 13 11 12 9 11 14 10 6 7 7 4 6 10 12 11 12 14 17 21 21 16 14 12 9 9 8 8 11 9 16 41 57 56 58 62 67 72 71 71
91 88 84 81 76 79 87 87 88 94 86 73 65 53 49 52 38 34 48 47 42 49 53 55 60 66 68 63 58 55 42 26 20 20 18 18 19 17 13 11 10 11 10 8 11 14 15 21 24 17 11 11 12 12 12 11 11 9 9 7 7 9 9 9 10 9 12 18 19 20 19 13 8 7 7 8 12 12 13 23 39 55 64 66 68 73 73 70
92 89 86 86 87 86 89 91 87 81 73 65 58 51 48 44 30 25 36 44 45 48 51 55 60 68 69 60 56 57 47 28 18 18 17 15 19 18 12 11 10 10 11 10 10 14 14 19 25 21 15 14 14 10 8 10 10 8 8 8 8 9 8 10 13 10 9 13 15 19 20 13 10 11 9 9 11 13 13 14 22 43 62 68 68 72 74 67
91 89 85 86 91 90 89 85 73 67 67 63 59 58 49 33 24 25 29 35 39 40 45 55 61 65 64 61 63 61 49 31 17 17 17 14 18 18 11 9 10 9 11 13 10 12 16 18 23 22 16 14 13 9 8 9 8 7 8 8 8 8 8 12 14 13 11 10 12 15 17 16 20 23 20 19 16 11 12 14 14 25 48 65 69 72 74 68
88 85 82 80 84 89 89 79 67 65 66 60 57 57 46 31 26 28 27 30 34 38 49 57 58 61 60 57 59 58 52 39 19 13 18 17 15 16 10 8 9 8 10 13 11 14 20 21 24 23 16 12 11 8 9 8 7 10 9 7 8 8 7 9 11 13 14 12 13 16 18 23 29 30 27 27 28 25 27 28 17 13 33 57 65 70 75 73
91 88 85 80 81 86 84 75 69 66 60 58 59 54 48 41 34 31 32 34 36 41 53 57 52 53 53 49 51 52 53 52 34 15 15 19 16 14 11 7 8 9 9 13 14 16 21 22 23 26 23 19 17 14 14 12 10 12 10 8 9 7 7 10 10 13 15 15 15 14 21 31 33 28 24 26 36 47 53 52 38 28 40 56 64 72 79 79
90 83 78 77 82 86 81 72 70 70 63 65 67 60 56 55 49 48 50 50 49 49 54 55 49 48 49 47 49 47 44 50 48 29 16 17 17 12 10 10 9 8 8 11 13 15 20 23 23 26 27 26 25 22 19 16 13 12 10 10 10 7 8 11 13 15 17 18 15 12 24 38 36 27 20 25 45 59 61 62 59 52 54 59 65 73 79 81
88 77 69 69 74 78 78 74 77 80 76 78 77 65 62 64 60 60 65 66 62 58 58 59 54 53 52 50 53 53 44 41 43 35 20 16 17 12 9 10 9 8 12 16 16 15 19 22 21 21 22 21 20 18 14 13 14 13 11 10 10 10 10 11 16 18 17 18 16 14 25 37 34 26 18 25 49 63 64 68 71 70 68 67 71 77 78 80
90 82 78 81 77 70 68 70 79 88 87 88 85 71 68 73 71 71 73 72 69 67 66 63 58 61 61 58 62 62 51 39 33 30 21 14 14 12 10 10 8 10 16 17 15 16 20 23 22 20 18 14 12 12 10 11 13 12 12 12 11 10 11 15 20 17 15 20 19 16 26 33 28 21 18 29 50 61 68 75 75 78 80 75 75 80 79 79
86 85 88 95 88 76 73 74 79 86 87 89 87 78 77 81 81 83 80 73 69 71 75 72 63 61 61 60 68 71 61 48 36 29 24 17 15 15 11 10 10 12 15 13 12 17 22 24 22 20 18 13 11 11 10 10 11 10 12 14 13 11 13 19 21 16 15 21 18 16 27 32 23 15 19 37 52 54 60 69 69 73 82 82 81 82 79 81
91 90 88 92 89 82 83 83 82 85 89 94 92 86 86 87 85 84 80 78 76 70 75 83 73 62 60 61 71 78 73 65 54 39 26 19 17 18 17 14 12 12 12 13 14 17 21 22 21 20 20 16 12 10 10 11 12 12 12 13 13 13 15 17 17 15 17 20 17 17 24 26 20 18 29 44 52 51 53 60 62 64 73 84 87 83 79 81
99 97 92 95 90 79 78 81 85 92 94 93 92 86 86 89 89 85 77 80 85 74 69 79 74 63 64 65 70 77 72 69 69 54 37 28 20 17 19 17 13 11 12 16 19 20 21 22 20 19 20 20 16 15 14 12 12 13 13 12 13 14 16 16 14 17 19 18 20 19 18 27 32 30 38 47 47 48 51 55 58 59 66 80 83 79 79 79
100 97 97 100 90 73 71 75 80 90 93 91 91 87 83 85 86 86 78 69 75 76 70 71 70 66 67 69 73 75 64 62 68 60 49 43 28 17 17 15 12 13 15 18 20 20 23 24 20 21 25 23 19 20 20 17 19 21 17 14 16 16 18 17 14 18 19 17 25 23 17 35 50 42 39 41 39 44 49 50 55 56 62 74 77 76 81 82
97 94 96 100 91 73 70 72 72 80 84 82 83 81 81 81 77 81 84 69 62 68 69 69 71 73 78 81 80 73 64 66 69 61 58 57 40 22 15 11 11 13 14 17 20 19 22 24 21 23 27 25 24 28 30 29 32 34 26 20 19 16 16 18 16 18 20 18 24 22 17 37 56 48 42 42 38 43 47 48 54 57 62 72 75 76 85 89
Wind_Speed
14 14 15 16 16 16 16 16 17 18 18 18 18 18 19 19 18 19 19 18 17 17 18 20 19 20 20 19 20 19 19 17 15 14 18 17 14 18 21 20 20 18 15 14 13 13 12 12 15 16 16 17 17 18 18 19 19 14 9 9 10 10 12 11 13 13 10 10 7 9 8 9 10 8 8 9 12 13 13 13 2 12 11 18 27 33 33 33
15 15 16 17 17 17 17 17 17 18 18 19 19 19 19 19 19 19 18 18 18 18 20 20 19 20 20 19 19 18 18 17 18 21 21 17 16 21 23 24 24 20 15 16 15 13 13 14 15 16 18 17 18 18 17 18 19 14 7 9 11 10 12 14 15 16 15 13 5 8 3 3 4 4 6 7 10 13 12 14 9 22 25 29 33 33 34 34
17 17 17 18 18 18 18 18 18 18 18 18 19 19 19 19 19 19 19 19 19 19 21 20 18 21 21 19 18 16 17 20 23 22 18 16 18 20 20 23 24 20 18 18 17 14 15 16 15 17 19 18 18 19 18 17 17 16 11 9 11 13 15 18 18 21 20 13 4 5 3 3 6 5 6 5 7 12 12 14 12 23 28 30 33 33 34 33
17 17 18 19 19 19 19 19 19 19 18 18 19 19 19 20 19 19 20 20 20 20 21 20 18 21 21 19 16 13 17 21 17 12 10 11 13 16 19 21 21 19 19 19 19 16 15 17 17 18 19 17 18 20 17 18 16 14 14 10 11 14 14 19 23 24 17 8 8 4 3 7 8 7 10 10 9 11 11 15 15 24 31 32 32 31 32 32
18 18 19 19 20 20 20 20 20 20 20 20 19 19 19 19 19 19 20 20 20 20 20 20 20 22 21 19 14 11 14 12 2 4 4 5 7 12 16 19 20 18 19 19 19 18 16 17 18 20 19 14 16 17 16 22 19 12 15 16 17 17 13 19 24 21 14 9 11 10 7 5 5 11 13 11 10 10 9 13 17 30 35 34 35 30 31 32
19 18 19 19 19 20 20 21 21 21 21 21 21 20 20 19 20 20 20 20 20 21 20 20 21 23 21 19 14 9 10 5 5 0 8 10 11 9 10 14 17 18 19 18 16 18 18 17 17 19 17 13 15 15 16 23 22 12 13 17 21 22 18 21 19 11 10 12 13 11 11 8 8 12 11 11 13 15 14 13 13 32 36 34 36 31 30 32
19 19 19 19 19 19 19 20 21 22 22 22 21 21 21 21 20 20 20 20 20 20 20 20 21 22 22 21 16 10 16 15 6 8 15 17 16 11 7 8 10 11 16 17 17 19 19 20 19 18 14 12 15 16 18 22 23 16 12 15 19 22 22 26 20 10 8 11 13 12 12 12 14 13 10 13 16 18 19 14 6 26 36 34 35 31 30 31
21 21 20 19 19 19 19 19 20 21 22 22 21 21 21 21 21 20 20 19 20 19 19 20 19 21 23 20 16 12 18 22 13 12 17 18 18 15 7 5 6 8 14 18 20 20 20 22 21 19 13 12 14 16 19 19 19 17 15 15 17 20 23 25 23 15 9 10 13 14 14 14 16 14 10 15 15 18 18 8 1 20 31 30 32 30 30 30
23 22 21 20 19 19 20 20 20 20 21 21 22 22 21 21 21 20 20 19 19 19 19 19 19 20 20 18 17 15 18 19 12 12 16 14 11 10 7 6 7 9 13 18 21 22 21 22 22 21 15 14 16 16 19 16 12 15 17 18 17 19 21 20 21 20 14 13 13 13 15 16 17 13 12 19 17 16 14 7 14 26 26 21 27 28 29 30
23 22 22 22 20 19 19 20 21 21 20 20 21 22 22 22 21 21 20 19 19 19 19 18 18 18 17 17 17 15 15 11 8 8 9 8 6 7 8 9 9 10 12 15 20 24 24 22 21 22 18 17 17 16 19 16 13 17 19 20 21 21 22 19 17 21 19 16 17 14 13 15 18 15 11 18 20 18 13 15 26 31 25 19 23 27 29 30
23 24 24 23 23 21 20 20 21 22 21 20 20 21 22 22 22 21 20 20 19 18 19 18 17 18 16 17 18 18 14 9 8 7 7 8 9 9 9 10 11 12 13 14 17 23 25 23 20 19 16 15 16 17 19 20 19 20 20 18 19 21 23 22 17 18 17 14 19 17 14 16 18 16 14 18 20 20 18 16 30 32 27 21 21 26 28 29
24 24 24 23 23 22 21 20 20 21 22 21 20 20 21 21 22 22 21 20 18 18 18 17 17 17 17 21 27 28 22 17 17 14 12 12 12 12 13 12 13 13 13 13 15 19 23 23 22 21 16 14 15 14 15 21 23 22 20 14 13 16 18 22 20 19 15 13 18 16 13 15 16 17 19 22 23 23 25 20 29 32 28 24 23 24 25 27
24 23 22 22 23 22 21 21 20 21 22 22 21 21 21 22 22 22 22 20 18 17 18 17 17 17 19 25 32 34 30 26 22 21 20 19 18 18 16 16 15 15 16 15 14 14 18 22 24 24 21 17 14 12 12 16 20 19 18 12 10 12 13 19 21 20 17 14 18 15 10 13 14 19 22 23 25 25 26 25 28 30 26 25 25 23 24 26
23 22 22 22 22 22 21 21 20 21 22 23 22 22 22 22 22 22 22 21 19 17 17 17 17 17 22 29 34 35 30 25 26 27 27 23 22 21 19 18 18 17 17 18 16 14 15 18 22 24 24 22 17 16 14 11 12 13 13 11 10 10 11 16 19 20 18 15 20 16 8 11 13 19 25 23 25 22 18 23 25 27 26 25 26 24 23 26
23 22 22 22 22 22 21 21 20 21 22 23 24 24 23 22 22 22 21 21 19 17 17 17 17 17 22 30 31 26 17 17 27 29 28 26 23 22 20 18 18 19 18 18 17 16 14 15 20 21 20 23 21 16 13 10 9 9 11 11 10 10 10 14 17 20 19 15 20 17 9 11 12 17 25 26 28 23 19 22 20 23 24 23 26 25 23 26
23 23 22 22 22 21 21 20 21 21 22 23 25 25 23 22 22 22 21 21 19 16 16 17 17 17 19 21 21 18 15 19 24 20 21 28 26 23 19 17 18 18 19 18 16 16 15 14 18 20 18 17 16 12 9 10 10 9 11 11 11 12 10 11 14 20 22 16 18 18 11 10 12 16 23 29 30 27 23 20 14 20 19 18 20 23 23 25
23 23 23 23 22 21 21 20 21 22 22 23 25 25 24 21 19 19 19 20 20 17 16 17 16 18 22 21 19 19 21 21 19 16 18 24 28 26 20 17 18 18 19 18 17 17 17 17 15 15 16 13 11 11 11 11 10 10 10 10 11 13 11 10 12 16 22 19 17 19 15 13 13 17 23 28 30 28 21 14 19 18 14 16 18 21 22 24
23 24 25 23 23 22 21 20 21 21 22 23 24 23 21 18 15 18 20 19 18 16 16 18 16 13 16 23 24 22 21 16 12 14 15 17 24 26 22 20 18 18 20 18 19 20 18 17 14 10 12 13 12 13 12 12 11 10 11 9 10 13 14 13 13 14 20 21 17 17 16 17 17 19 24 25 30 27 17 21 25 19 17 17 18 22 24 25
23 24 25 25 23 22 21 21 21 20 21 22 20 19 19 17 15 18 21 17 14 11 9 14 21 13 7 12 18 16 16 13 9 9 12 15 19 23 23 21 19 20 20 14 16 21 16 13 13 12 12 14 15 15 15 14 13 14 14 11 11 12 14 14 15 14 18 18 17 17 15 16 19 22 25 21 27 24 16 22 23 22 21 18 17 21 25 26
24 23 25 25 24 23 22 21 21 20 20 19 17 17 17 15 10 9 12 15 20 19 15 16 26 27 18 18 14 8 9 12 13 12 12 14 17 21 24 22 19 19 18 13 13 20 17 11 13 15 15 17 19 19 19 18 16 16 15 14 14 13 13 15 16 14 17 14 15 17 17 16 19 23 22 14 22 19 14 20 19 21 24 24 25 25 23 25
26 24 24 25 25 24 23 22 22 20 19 17 15 14 13 12 9 9 12 14 20 24 27 27 25 29 27 25 20 10 8 10 14 15 14 15 18 19 21 22 17 13 15 16 14 17 17 13 16 18 18 19 20 21 20 19 19 18 14 12 13 13 12 15 18 16 18 13 12 17 18 17 19 21 20 15 18 14 15 19 18 21 22 24 27 24 21 24
27 26 26 26 25 24 23 22 22 21 20 15 12 13 13 13 14 17 19 17 19 23 27 30 30 31 30 29 27 19 15 14 12 14 16 19 20 18 19 20 15 12 15 17 13 13 15 14 17 19 18 19 19 21 21 19 19 18 13 11 11 10 11 15 18 19 16 10 9 15 16 16 17 19 20 15 14 14 20 21 20 23 20 18 20 18 20 20
26 26 27 26 25 24 23 23 23 20 18 12 12 15 15 16 17 20 19 15 18 24 25 26 30 33 32 32 30 25 22 18 14 15 18 21 23 21 19 17 16 15 16 18 16 13 12 14 17 19 18 20 20 20 21 17 15 15 13 11 11 10 11 11 12 15 11 9 9 13 12 12 14 17 17 16 15 15 22 24 22 25 21 18 21 18 14 8
25 26 27 26 25 24 23 24 22 15 13 12 14 15 13 15 15 17 16 11 13 20 26 28 29 33 35 32 27 26 25 22 19 17 19 22 23 21 18 17 17 15 16 21 22 17 13 13 18 20 20 22 21 19 20 15 11 14 16 14 12 12 15 12 11 13 11 10 10 12 9 9 12 15 14 15 16 16 23 23 18 20 21 20 23 15 13 16
24 24 26 26 25 25 24 23 16 12 13 14 13 11 10 13 13 13 11 7 10 15 23 28 29 33 35 30 27 27 24 23 24 21 19 23 23 18 16 17 16 14 18 23 22 17 15 16 19 22 21 23 22 18 20 16 10 13 17 19 17 15 16 15 15 15 10 7 9 10 9 7 11 16 15 13 14 14 21 21 17 17 18 20 21 17 24 23
25 24 25 25 25 26 24 18 13 15 16 14 12 12 11 10 11 12 8 5 8 10 16 20 20 21 27 30 30 27 18 20 27 25 21 23 24 19 13 14 13 14 18 18 14 10 12 18 20 21 22 23 21 17 19 18 11 10 14 19 20 18 16 16 17 14 9 7 9 11 10 7 9 15 16 15 15 16 17 18 15 16 16 16 17 23 27 25
26 24 23 23 23 24 21 17 17 19 16 12 13 13 11 10 11 10 5 5 7 7 11 17 14 9 20 29 29 23 12 12 21 28 27 23 24 22 14 12 12 13 14 11 10 9 14 20 20 21 22 20 18 15 17 20 13 9 13 17 20 21 19 17 17 13 8 8 9 14 14 9 7 11 15 16 17 18 16 15 12 11 14 13 19 24 22 19
26 24 23 23 23 21 20 20 20 17 14 15 14 10 10 12 12 7 2 5 4 4 3 10 10 3 12 24 29 25 14 8 13 25 31 25 23 22 15 14 14 14 16 12 10 11 15 20 19 21 20 15 15 15 17 20 14 10 13 16 18 20 17 14 12 11 10 8 8 13 15 9 8 8 12 16 18 18 17 18 15 12 15 13 18 20 17 15
25 23 22 24 24 21 18 19 19 16 15 15 11 9 11 11 7 2 3 5 2 4 6 2 5 4 10 18 26 28 20 11 8 20 31 26 24 22 14 15 16 14 19 17 13 11 14 20 20 19 16 13 16 17 20 21 14 12 15 13 15 16 15 12 9 9 10 8 8 12 14 10 9 9 10 13 15 15 14 15 18 18 19 17 18 19 18 16
24 23 23 24 25 21 17 18 18 15 13 10 6 8 10 6 2 3 6 4 1 6 10 5 4 5 12 15 16 21 20 16 9 23 29 25 26 25 16 17 17 12 15 17 16 13 14 20 20 16 15 14 16 18 19 20 15 14 15 13 13 14 13 11 8 9 7 7 11 16 16 13 9 9 10 10 11 13 12 10 16 22 26 27 27 27 25 24
25 24 24 25 24 20 18 17 14 10 9 7 6 7 7 3 2 4 4 1 2 6 8 5 9 11 8 15 12 15 18 16 10 22 20 18 21 20 14 14 13 9 11 13 14 16 16 18 15 14 18 18 17 17 18 19 17 14 13 11 11 10 9 9 8 8 7 8 13 18 20 16 10 8 9 11 13 15 13 9 14 21 27 33 34 34 34 32
26 26 27 25 22 18 16 15 11 8 7 7 7 7 5 3 3 5 5 3 3 3 6 6 10 15 8 10 12 15 15 14 11 17 15 13 14 14 13 11 9 9 11 11 12 14 15 15 13 15 22 22 18 16 15 16 16 14 11 10 10 9 7 8 8 8 8 9 11 16 19 15 10 9 12 14 15 14 13 12 18 21 24 31 32 34 38 37
28 29 27 20 15 13 14 13 10 8 6 5 5 3 3 4 2 4 5 4 3 1 3 7 11 14 12 9 11 15 14 13 13 15 15 15 12 13 16 15 14 11 9 10 12 11 11 13 17 18 19 21 18 14 12 12 13 14 12 11 10 9 8 8 9 8 9 10 11 15 15 11 9 10 13 14 14 11 12 17 24 29 31 31 31 36 41 40
29 28 23 14 11 11 11 10 7 5 4 3 3 2 4 5 3 5 5 3 3 2 3 7 11 14 11 9 10 13 13 12 15 15 13 14 12 12 14 17 19 14 8 10 10 10 11 10 16 17 12 14 16 13 12 13 13 13 12 11 9 9 8 8 8 8 8 8 10 13 11 9 9 5 8 12 14 14 10 19 23 31 39 37 33 36 39 39
28 22 18 15 12 8 6 6 5 5 4 3 3 3 4 5 4 6 4 2 4 5 7 10 10 11 8 8 11 14 13 10 14 14 12 13 11 11 13 14 19 16 9 9 7 10 13 11 14 16 13 16 17 16 15 15 13 11 12 11 9 10 9 5 7 7 6 5 7 9 7 6 6 5 6 9 12 15 10 14 16 27 39 37 33 33 33 32
25 18 17 16 11 6 4 5 4 5 5 4 5 4 5 5 4 6 3 1 4 5 9 11 5 6 5 5 9 14 15 10 13 12 10 13 12 13 15 12 16 18 12 9 6 8 12 10 14 17 15 19 20 19 18 16 10 8 11 12 10 12 10 5 6 7 5 5 5 7 8 7 6 7 11 11 12 14 7 8 12 26 35 30 28 29 29 28
23 19 18 13 6 3 4 5 4 6 6 4 5 5 6 5 3 5 4 2 4 4 6 8 4 4 5 3 6 13 15 11 13 11 9 12 12 14 16 13 17 20 17 12 7 8 9 8 14 19 17 19 21 21 21 18 12 8 10 12 11 11 11 7 6 6 6 7 6 8 11 11 7 6 11 14 13 13 9 17 18 24 28 25 24 26 27 27
22 20 17 10 4 3 2 6 7 9 7 5 7 9 7 7 7 6 4 4 3 4 5 5 3 3 5 6 3 11 14 11 11 11 9 10 10 14 17 14 17 21 21 17 9 7 10 7 12 19 18 17 19 18 16 17 17 12 10 11 11 10 10 8 6 6 8 7 5 9 13 11 9 7 8 11 9 9 12 21 20 19 20 21 23 25 27 28
20 17 11 6 5 4 3 6 7 8 7 5 7 7 4 7 11 7 3 5 4 4 5 3 1 3 6 8 6 5 9 10 11 10 9 8 8 15 17 14 16 21 22 19 10 6 8 6 7 15 19 16 14 12 11 13 15 15 13 12 10 8 9 9 6 5 7 7 6 9 10 8 8 9 8 11 10 9 9 18 18 19 20 22 24 24 27 32
18 12 7 6 7 4 2 4 4 5 5 6 7 7 5 8 10 4 1 5 4 3 3 4 4 5 7 10 8 8 9 9 12 10 9 10 9 14 18 14 14 19 21 19 13 7 8 6 4 11 17 14 10 11 12 13 13 14 13 12 11 8 8 9 8 7 8 7 6 7 7 6 6 8 9 11 14 10 7 11 12 18 23 25 27 27 28 34
16 9 6 6 7 4 2 3 3 5 5 6 7 8 8 9 9 5 3 3 2 2 3 5 7 7 7 10 7 6 8 7 12 10 7 11 9 8 15 16 14 16 17 16 12 7 6 5 3 8 13 12 11 13 16 17 16 13 10 10 12 11 10 9 9 9 9 7 7 6 6 6 4 5 8 10 13 12 12 10 8 16 27 29 29 30 33 36
12 7 7 7 6 3 2 3 4 5 5 6 7 9 12 11 8 6 5 3 4 4 4 5 7 8 8 8 7 7 8 6 12 10 5 11 10 7 15 22 20 19 15 10 11 9 4 3 5 7 10 12 14 17 18 18 17 14 12 12 13 12 11 9 8 9 9 8 7 7 7 4 1 2 4 6 7 10 12 13 11 16 28 33 32 31 34 37
12 12 12 9 4 1 3 3 4 5 5 8 10 12 13 11 7 6 7 6 6 5 4 5 7 8 8 7 8 8 8 6 10 10 7 10 10 9 17 23 22 20 14 9 11 9 4 3 7 8 8 11 14 16 16 18 16 14 14 13 12 13 12 10 7 6 6 7 7 6 6 3 3 5 4 3 6 8 6 1 10 15 25 33 34 31 32 35
16 16 11 8 4 2 4 4 5 4 5 8 10 9 7 7 8 7 8 8 7 5 5 6 7 7 7 8 10 9 8 6 5 7 8 9 9 12 18 22 19 17 13 9 9 8 4 5 8 8 9 10 11 12 14 16 14 11 12 13 15 16 16 12 9 5 4 8 10 8 4 2 2 4 1 6 13 15 16 14 5 15 28 33 33 32 33 34
14 11 7 6 4 2 5 6 6 6 8 9 11 10 7 6 7 8 9 10 9 8 7 7 8 9 9 10 11 10 8 6 4 4 6 9 9 11 17 21 17 16 15 13 11 10 6 7 9 8 9 10 11 11 11 12 12 10 13 17 18 19 18 14 8 5 5 8 12 9 2 3 3 3 2 7 14 13 11 14 15 19 28 30 29 30 32 31
10 6 6 8 6 4 7 10 7 5 8 9 8 9 8 7 7 7 8 8 7 8 8 9 10 10 10 10 9 9 8 7 7 7 6 10 8 8 17 20 19 20 17 11 12 12 5 7 10 11 10 10 10 11 12 12 12 12 16 20 19 18 17 12 7 7 7 6 9 8 3 5 4 2 4 7 12 12 9 9 12 11 18 24 25 26 29 28
6 4 5 8 7 5 6 7 4 3 6 7 5 6 8 9 8 6 4 5 6 7 7 8 9 8 8 8 7 8 8 7 9 6 5 9 7 9 18 20 18 18 11 6 12 10 4 6 12 13 12 12 12 13 16 16 16 16 17 18 19 19 16 10 6 9 8 6 8 8 6 8 5 4 4 7 13 12 8 7 7 6 6 15 20 21 25 27
6 5 6 6 4 5 6 8 9 9 10 8 3 4 8 10 9 6 3 5 7 6 4 5 7 8 10 9 7 7 8 6 6 4 5 9 8 9 13 15 16 15 8 6 13 9 3 6 11 12 12 11 13 14 16 17 16 16 15 16 18 19 16 12 10 11 10 7 7 6 7 8 6 6 6 10 14 12 10 12 12 7 7 10 14 16 20 24
8 6 6 7 7 9 13 15 16 14 11 7 3 3 6 9 9 7 4 4 5 4 4 5 7 7 9 10 8 7 6 6 5 3 4 8 9 10 9 10 15 16 11 10 10 7 4 6 9 12 11 10 11 13 14 16 16 16 18 18 18 17 16 16 14 13 13 11 8 6 5 6 6 5 8 13 15 16 15 16 16 16 15 15 14 15 18 22
12 9 9 11 11 13 15 15 13 10 7 4 2 3 5 8 9 9 7 6 5 4 4 7 9 10 10 10 10 8 8 8 7 6 5 4 7 10 9 8 12 16 12 9 8 7 6 4 6 9 9 8 8 5 7 11 13 16 18 18 16 14 15 17 15 12 12 11 10 10 8 2 2 3 10 13 15 16 15 16 17 17 18 19 17 18 20 21
17 15 14 13 10 9 11 10 9 8 4 2 3 5 7 8 10 12 9 7 7 6 6 7 9 10 9 10 11 10 11 11 11 11 10 7 2 7 10 8 10 14 13 9 7 7 5 3 5 7 6 8 7 4 5 6 6 10 15 16 16 15 13 13 13 11 12 10 9 10 9 3 5 5 8 10 12 13 12 14 16 16 17 19 18 20 21 20
22 19 16 11 8 8 10 8 8 7 5 5 8 9 10 10 11 10 7 4 6 8 8 9 10 8 8 9 9 8 10 13 14 13 13 14 11 5 13 14 13 13 12 9 6 7 6 4 5 6 6 7 7 3 4 3 5 7 9 11 14 16 14 12 12 13 12 8 6 7 6 7 9 7 9 9 9 11 10 12 15 15 17 18 18 19 20 19
Wind_Direction
307 306 301 297 298 298 299 296 295 297 297 300 303 304 306 310 311 311 320 323 321 325 330 330 327 331 334 332 332 329 320 308 300 286 267 256 242 244 243 244 245 238 230 222 218 217 217 230 228 220 223 222 224 229 228 228 224 219 223 234 239 236 236 240 246 253 262 257 203 162 179 204 213 184 181 213 224 234 246 240 160 66 88 127 143 152 150 149
311 308 305 300 297 295 296 296 296 296 296 297 297 299 301 303 304 306 312 316 318 319 325 328 325 332 335 333 339 334 320 314 307 289 268 253 239 238 236 238 241 236 228 217 210 215 225 229 223 217 220 224 221 220 224 223 221 221 224 230 233 238 240 240 247 255 259 261 205 153 180 228 220 208 203 211 214 218 230 230 162 95 97 116 133 145 145 151
313 310 307 303 299 295 294 294 295 296 296 297 295 296 297 298 299 301 304 308 312 313 319 323 323 331 333 335 342 334 325 322 307 289 274 258 243 240 238 238 239 234 224 213 208 217 233 232 226 219 218 227 223 216 219 217 218 220 226 234 232 236 246 248 247 248 252 271 313 93 107 217 237 251 241 247 247 233 219 218 178 119 119 126 132 141 145 154
316 311 307 305 303 299 297 295 295 295 295 296 296 295 295 296 295 296 299 302 305 307 315 318 319 325 331 338 340 339 333 318 297 272 268 268 253 246 240 235 236 231 220 213 208 213 236 244 240 228 220 227 225 221 218 214 216 214 222 236 240 237 241 248 250 253 257 280 308 319 176 206 227 242 247 249 256 253 223 218 199 142 136 138 139 145 149 156
326 318 310 306 302 301 300 298 297 295 295 295 295 294 294 295 293 294 294 296 299 302 308 311 316 321 328 336 337 345 332 314 274 192 247 299 289 261 243 234 231 225 214 213 214 213 231 246 247 237 227 227 224 225 222 217 218 216 225 231 243 247 243 242 244 252 255 246 257 266 260 231 225 234 237 242 249 259 232 226 202 153 145 146 145 149 154 160
331 327 321 316 307 302 299 298 297 296 295 294 293 293 293 294 293 293 292 293 295 297 301 304 311 317 323 332 334 333 299 276 101 238 284 310 312 289 257 235 226 222 212 211 222 223 229 238 240 236 229 227 225 227 224 219 219 225 230 228 237 246 253 256 254 260 254 247 247 252 264 261 259 246 232 239 248 255 250 251 205 156 153 153 148 152 160 164
329 326 325 323 318 313 305 300 298 295 295 294 294 293 291 292 291 292 291 291 291 291 296 298 305 312 318 328 328 301 258 248 260 291 292 296 294 294 279 228 212 222 217 213 222 222 223 227 228 231 229 228 227 229 231 223 221 227 234 231 235 237 247 259 265 267 240 244 255 261 266 251 251 252 239 242 243 252 257 277 250 156 153 153 149 155 163 168
323 322 321 320 319 318 314 310 305 299 296 292 292 292 291 290 288 289 288 287 288 288 291 294 301 307 315 326 323 297 255 251 268 287 286 286 283 285 278 216 208 231 226 219 220 218 220 223 224 226 229 232 228 229 233 230 224 226 233 237 239 238 241 249 254 256 232 230 247 254 261 251 250 254 250 247 240 245 247 276 330 141 141 146 150 158 163 171
321 320 318 316 313 312 313 313 312 309 304 298 292 289 290 290 288 286 285 285 286 286 288 291 295 300 310 311 299 285 264 257 265 272 279 287 283 269 251 232 234 234 230 223 221 219 219 221 222 223 230 237 234 233 232 232 229 222 229 237 242 245 244 244 243 245 234 225 233 236 248 247 246 251 249 247 242 240 228 146 121 129 130 143 152 162 166 171
322 319 315 312 310 309 308 308 310 311 310 307 300 291 287 288 288 286 285 285 284 285 286 286 290 295 300 295 284 274 262 255 257 254 267 275 253 241 242 243 243 239 237 229 222 219 219 221 221 224 235 242 241 241 233 232 237 229 228 232 237 241 244 247 241 239 235 227 233 236 243 242 236 237 236 239 238 240 226 139 133 136 139 158 161 166 170 174
321 316 312 309 307 305 303 302 304 306 308 309 307 301 292 285 285 287 287 286 284 285 284 284 286 287 286 279 269 259 246 239 252 247 258 260 242 245 251 247 245 244 243 239 228 219 220 223 223 225 231 238 243 246 241 238 243 243 239 235 236 238 240 244 242 237 236 233 236 237 247 246 234 231 228 233 230 229 228 163 146 153 162 173 171 168 173 179
322 319 318 315 310 304 299 298 298 301 303 304 305 307 303 292 284 284 287 286 285 284 282 281 280 280 281 268 256 253 254 253 245 235 255 269 253 252 255 250 247 243 241 244 237 222 220 223 226 230 228 231 239 245 246 241 242 245 245 245 243 243 241 239 239 233 230 234 233 230 242 243 233 233 228 229 232 226 224 189 153 162 175 176 173 172 176 181
328 326 325 322 318 310 301 296 296 297 297 298 300 304 307 304 293 284 283 285 285 283 280 279 277 277 274 264 259 262 267 266 253 236 243 257 260 261 257 251 247 242 242 244 243 231 223 223 227 234 237 237 236 240 248 243 243 242 240 243 237 241 240 232 235 233 227 228 226 223 234 236 229 233 228 223 232 234 222 197 162 157 170 174 173 174 179 185
334 328 325 321 319 315 307 299 296 296 295 295 298 300 303 307 304 290 280 280 284 282 279 275 275 273 265 265 272 275 276 273 264 246 234 242 258 260 253 249 246 240 238 241 245 243 235 229 229 234 238 241 243 246 249 246 246 243 235 238 232 235 240 228 224 224 227 223 218 222 237 240 230 223 224 221 230 233 212 205 189 168 174 177 172 175 181 186
336 330 326 323 318 315 311 304 299 296 295 295 296 298 300 303 305 297 282 275 279 281 279 273 268 267 265 270 277 285 292 269 258 250 232 236 250 249 245 242 238 235 233 236 240 243 244 235 229 232 233 236 243 247 246 238 234 234 228 228 226 230 241 235 220 213 221 219 211 218 235 242 244 228 215 214 227 223 203 217 205 170 175 178 172 177 181 185
337 334 331 328 323 317 313 307 302 298 297 295 295 298 300 300 301 300 287 273 273 275 271 267 260 255 261 274 281 282 277 250 251 259 239 233 234 234 237 234 232 229 226 229 231 233 237 235 230 229 229 228 233 236 239 235 222 221 224 225 223 224 235 240 229 213 210 214 209 214 233 238 241 245 221 209 220 217 208 215 171 147 170 179 180 182 182 187
335 337 337 333 329 324 316 310 305 301 298 297 298 301 302 300 299 300 289 271 267 266 259 256 255 258 258 268 281 269 255 247 246 253 240 229 225 225 229 229 226 218 217 220 222 224 224 227 227 224 226 224 220 220 226 227 216 213 219 227 229 229 232 231 237 220 203 206 214 211 226 242 238 248 235 213 211 213 202 169 134 135 159 172 193 194 189 194
333 339 341 337 332 328 322 316 309 304 302 302 303 306 307 302 297 292 283 270 265 260 254 250 247 266 263 247 252 255 253 254 239 227 227 223 218 219 219 221 219 207 208 212 213 217 214 215 219 216 218 218 217 213 217 220 212 212 212 217 228 235 237 227 234 225 194 196 217 216 216 235 244 249 247 225 207 205 179 145 147 150 155 173 201 200 196 200
334 337 342 340 335 331 328 322 314 309 307 307 309 313 313 304 290 274 266 254 243 232 235 228 211 219 286 251 241 250 253 250 238 223 216 211 207 208 211 217 217 202 200 204 203 206 204 205 212 217 214 210 213 213 216 220 216 214 214 216 219 229 238 232 237 220 185 189 213 223 219 223 236 246 254 233 197 191 159 143 152 152 160 185 209 204 201 204
336 335 339 340 338 334 330 327 321 316 311 309 313 315 313 309 293 264 257 244 236 234 245 236 206 212 256 282 273 259 235 225 228 232 218 203 193 196 203 208 213 205 199 201 195 196 200 206 210 213 212 207 210 216 218 221 225 225 219 221 218 224 236 229 237 219 181 189 210 220 227 221 228 245 255 220 181 183 156 142 149 156 167 181 194 205 208 205
336 336 336 337 338 335 332 330 324 320 314 308 307 303 303 311 309 309 311 280 251 244 248 252 236 227 241 265 272 265 256 237 223 222 216 202 190 189 195 199 206 205 199 202 196 194 202 215 215 211 211 210 209 214 219 219 227 237 233 232 224 221 234 226 232 225 186 187 214 216 227 225 223 245 254 216 185 183 157 146 152 164 177 182 188 204 210 206
333 335 337 337 336 334 334 329 323 321 314 303 292 284 284 295 300 307 311 295 270 256 248 248 249 247 245 252 258 260 270 267 239 222 208 198 193 191 189 193 204 201 193 199 197 194 206 221 216 208 211 214 213 212 218 218 222 238 242 244 240 216 228 233 231 228 195 174 219 217 220 229 224 237 252 233 196 166 151 154 152 157 173 180 182 197 207 211
330 331 334 336 335 334 334 328 324 321 313 298 282 278 283 296 300 302 303 293 278 266 252 244 242 246 245 245 249 251 255 255 245 228 205 196 198 198 193 191 204 202 190 197 201 197 207 217 212 209 209 211 217 212 212 219 218 232 237 239 249 221 218 233 222 226 205 166 220 228 216 226 228 229 245 241 211 170 160 164 156 162 173 171 177 190 190 189
327 327 328 332 334 333 332 328 325 322 313 294 284 283 292 305 307 309 305 286 274 262 251 243 237 239 239 237 239 241 244 241 239 230 207 200 198 199 204 199 200 205 198 198 205 209 212 208 203 208 209 206 214 212 206 215 216 225 234 234 244 234 226 225 204 215 213 182 211 239 232 220 225 228 232 235 220 185 170 163 143 160 174 175 181 167 97 79
326 324 323 326 329 329 332 331 329 329 316 301 300 304 308 312 315 324 321 282 274 264 249 239 233 237 235 231 231 230 235 235 230 227 212 204 198 197 208 204 201 209 205 200 205 217 216 203 198 204 209 205 209 211 205 208 214 220 229 232 238 243 238 229 214 210 204 192 206 225 244 227 216 228 227 225 224 196 171 157 135 143 166 183 178 127 89 88
325 321 320 323 322 327 332 328 321 321 313 304 312 312 308 321 322 326 330 279 272 262 240 221 216 229 222 219 220 216 229 236 225 222 217 208 203 203 208 201 205 213 206 201 204 219 219 206 199 201 207 204 206 213 205 202 212 220 219 224 234 245 241 225 222 220 198 197 209 210 236 246 214 222 224 221 225 211 172 147 141 146 166 183 153 115 106 106
323 318 318 319 320 326 324 312 309 313 310 304 311 311 310 324 327 328 324 269 270 259 226 193 179 196 204 205 201 197 218 227 211 213 213 208 204 210 218 202 201 213 208 203 205 210 213 210 201 199 205 204 206 211 203 201 210 219 211 211 225 241 244 227 222 230 212 197 218 216 220 242 235 216 214 216 226 222 186 149 139 153 180 170 119 118 135 135
321 318 317 316 317 318 310 303 301 299 301 300 304 318 322 320 324 331 278 261 285 305 255 171 158 171 200 193 187 195 216 192 184 200 202 203 203 207 223 215 204 208 208 209 210 200 204 212 202 195 204 206 205 206 204 207 210 219 214 203 217 238 252 247 234 240 229 206 227 223 209 226 249 222 207 211 221 228 200 161 148 164 183 159 116 125 150 164
321 320 318 315 314 312 304 299 292 287 295 299 299 315 318 316 329 354 247 268 288 351 351 103 166 212 192 181 184 199 217 218 182 177 186 197 204 207 221 226 216 207 211 219 220 201 198 213 209 196 202 209 205 202 207 211 207 216 221 203 207 229 244 250 251 255 239 216 234 230 204 206 240 230 214 212 214 224 210 167 157 165 161 143 132 136 137 157
323 321 319 316 312 312 307 296 289 288 294 299 307 311 306 301 295 235 234 257 8 359 342 328 286 252 192 177 186 197 213 235 191 159 178 192 198 208 220 225 228 216 212 221 225 219 200 206 215 207 200 207 207 203 209 210 199 207 224 213 200 212 229 239 251 264 250 217 231 236 218 204 223 232 218 221 218 208 206 184 162 156 147 143 150 159 159 166
322 320 318 313 306 303 297 289 290 298 296 296 303 301 291 254 221 243 237 270 12 349 339 321 332 324 218 184 183 192 210 236 183 151 176 189 186 204 213 214 229 221 207 214 220 226 209 196 212 215 201 204 209 204 205 204 197 203 218 218 203 197 216 230 230 241 247 226 219 230 234 219 210 226 223 237 236 202 191 189 155 141 142 149 156 165 169 170
319 318 315 310 301 290 280 277 283 289 284 285 293 298 282 238 198 231 258 331 332 337 358 340 335 336 296 213 193 189 206 230 188 158 176 186 179 196 203 200 204 199 202 203 201 219 219 195 196 214 207 205 208 201 197 196 195 202 207 213 211 192 197 217 212 213 232 239 220 223 236 232 216 223 223 239 245 212 188 173 153 143 142 148 153 160 165 168
318 318 315 310 299 279 271 279 286 279 272 278 288 287 264 261 235 250 279 334 332 273 347 332 317 319 310 264 211 188 201 213 185 168 178 187 186 191 204 209 203 202 202 195 192 202 215 196 193 211 210 202 207 200 188 191 193 197 201 207 212 199 192 204 208 210 221 234 235 230 234 240 236 221 209 226 253 239 188 165 161 156 150 150 156 161 163 169
319 319 317 313 298 277 272 285 288 269 260 260 268 248 256 267 277 311 324 340 326 293 302 330 318 304 295 267 229 190 196 201 177 172 180 188 192 187 201 211 207 212 205 191 193 190 202 199 191 203 196 187 208 210 191 195 196 195 204 212 214 208 199 199 204 211 217 222 232 235 233 232 232 215 196 213 246 258 194 162 163 152 149 152 156 160 164 169
322 325 320 309 296 280 273 281 266 237 217 222 258 254 260 269 274 308 325 304 312 329 321 317 304 289 278 248 234 206 204 197 169 176 187 188 195 189 195 206 205 209 205 192 191 188 203 206 184 185 176 177 206 223 210 203 198 193 205 213 214 212 203 195 214 225 232 228 223 230 239 239 237 264 257 223 235 251 214 174 167 140 141 148 150 156 163 165
327 332 323 310 293 268 262 270 246 215 203 232 268 263 264 275 288 301 306 270 297 325 329 320 301 295 292 222 216 213 215 203 172 180 193 191 199 196 193 199 202 208 210 194 177 187 205 197 177 183 186 187 200 217 219 213 194 184 206 211 208 216 215 196 211 231 248 245 221 217 228 234 232 247 248 231 226 233 197 122 129 132 137 143 146 153 159 162
330 330 321 314 293 247 259 264 229 208 212 236 260 269 279 276 247 269 291 298 283 302 327 327 353 1 324 257 204 202 210 204 180 184 193 193 200 196 192 199 203 210 217 209 190 196 207 183 172 186 198 199 199 212 226 223 203 187 205 205 194 210 228 221 206 207 223 238 230 216 221 223 217 223 224 214 219 219 149 99 107 134 143 143 146 153 156 159
329 323 314 306 260 206 241 267 239 211 211 236 256 263 278 288 265 255 292 309 290 310 324 332 6 7 328 315 259 198 203 196 181 188 192 193 198 190 191 197 201 209 219 219 208 201 213 193 165 181 197 199 196 212 228 216 205 208 209 198 191 202 219 223 217 200 205 222 229 222 224 221 213 220 209 192 217 232 152 123 123 140 145 143 146 150 151 152
329 319 312 312 266 228 221 268 243 207 214 238 257 262 276 292 275 245 249 297 297 311 323 348 342 305 306 307 310 268 235 197 178 195 196 190 190 185 191 197 195 204 217 219 206 183 214 223 162 180 197 195 187 206 217 195 198 218 217 196 195 211 217 218 218 210 209 211 214 221 227 222 208 219 207 177 206 237 154 134 139 144 147 149 149 148 148 152
331 316 304 318 297 267 241 275 240 197 228 248 256 277 302 299 290 270 257 312 323 312 314 329 300 293 298 293 306 310 272 208 183 203 198 183 181 180 190 195 188 198 213 220 211 182 200 225 176 181 194 190 187 203 203 189 194 212 210 192 196 212 220 219 212 209 217 215 207 215 229 227 201 216 227 193 194 208 156 145 155 148 149 153 153 151 153 159
332 316 298 314 317 313 267 256 237 216 242 260 261 281 291 279 281 292 284 286 294 249 256 294 291 283 287 292 308 311 284 224 193 207 189 177 187 184 187 189 184 193 206 219 220 199 190 203 174 178 185 183 194 203 201 200 201 204 203 194 199 210 214 214 209 208 217 215 208 213 227 234 196 192 236 219 196 190 175 174 172 154 154 154 154 158 162 168
328 313 308 314 319 313 237 227 251 244 247 267 267 270 276 274 278 301 307 281 273 273 260 271 279 277 280 285 290 295 295 241 199 202 181 175 188 192 186 186 185 187 196 214 213 197 181 178 165 175 186 186 192 199 205 209 201 198 210 207 199 207 216 215 204 206 219 213 209 220 223 230 26 49 273 252 198 180 178 189 196 169 156 154 155 159 165 170
324 316 321 329 327 236 211 245 277 261 252 269 269 265 275 294 307 305 303 292 287 299 291 278 275 272 279 282 282 301 313 266 206 191 178 175 187 197 189 187 184 181 189 213 204 180 139 159 172 175 191 197 194 194 206 217 210 199 210 216 210 208 212 224 224 209 224 223 211 225 222 205 21 6 340 25 78 78 63 232 214 174 145 145 151 154 159 166
319 312 318 343 3 180 215 282 308 300 297 297 297 298 301 310 311 304 305 307 313 323 298 280 276 270 283 293 290 302 313 289 231 192 175 165 187 200 185 182 184 180 189 207 183 157 150 175 176 178 182 187 191 189 198 214 221 213 205 214 229 220 203 215 240 221 213 229 223 225 219 164 36 356 358 87 74 59 40 29 56 130 129 135 146 151 154 159
323 315 318 341 351 255 251 288 308 312 321 324 320 323 324 308 311 320 317 310 310 306 289 285 294 291 289 292 291 294 292 277 259 237 188 165 184 195 177 178 185 184 197 207 170 153 184 185 170 185 187 182 192 193 191 202 211 212 201 204 224 231 212 204 220 216 205 226 232 233 201 115 58 16 178 120 84 72 61 47 57 100 124 134 144 151 154 156
328 334 345 344 336 295 275 286 295 303 319 328 322 321 330 326 322 320 306 296 290 287 282 283 292 293 283 281 291 298 286 248 242 261 214 176 171 173 173 181 190 185 189 199 168 157 189 196 187 202 197 187 201 196 183 192 206 207 201 201 214 232 229 210 193 208 208 213 241 243 176 140 134 127 173 135 101 92 84 57 47 79 122 133 140 149 154 158
331 335 346 341 327 313 306 302 306 299 295 308 316 315 321 322 320 316 291 276 286 291 285 272 269 271 278 290 303 305 297 257 239 251 202 168 151 162 172 179 192 186 166 168 178 172 188 199 204 220 212 194 200 196 182 188 206 208 201 205 210 216 227 229 208 210 204 197 235 233 162 136 142 172 172 117 107 106 100 89 66 51 116 131 134 147 154 157
352 332 330 339 320 312 326 317 310 305 292 285 282 293 302 305 311 318 288 271 281 278 270 270 261 254 269 294 309 303 306 292 249 224 181 172 158 161 170 175 186 180 153 178 188 177 188 204 207 226 230 208 195 196 188 185 200 211 210 218 216 207 215 233 227 216 213 214 230 218 164 156 173 197 174 122 116 121 125 131 132 144 172 144 132 147 157 160
349 321 316 334 314 291 295 295 296 303 301 289 265 264 291 298 305 312 299 288 293 266 235 264 284 285 288 299 304 294 299 299 266 227 203 194 168 153 167 185 179 168 171 190 182 168 199 213 207 214 227 227 211 206 195 184 191 203 210 220 216 202 209 226 229 224 223 227 232 229 204 191 195 185 136 119 125 131 132 139 150 167 171 150 139 153 164 168
349 335 322 320 306 289 289 291 294 300 304 308 297 284 298 300 308 318 305 280 290 287 241 249 279 299 303 303 299 278 261 265 270 279 279 219 170 159 176 197 172 162 178 188 166 172 197 205 213 212 217 223 228 243 215 196 197 202 207 217 217 209 213 218 223 231 229 226 230 237 236 226 39 97 118 124 133 137 141 151 161 173 166 151 154 166 172 178
345 338 328 317 304 299 303 304 304 302 307 334 319 313 316 312 317 323 311 275 264 266 261 275 296 304 297 296 294 269 254 260 265 275 292 303 250 173 179 195 172 166 183 184 165 180 198 221 217 208 220 214 205 250 255 233 247 234 216 212 213 220 225 214 210 224 232 223 219 234 234 171 76 85 124 141 143 143 155 161 163 177 172 158 163 171 175 182
345 342 337 322 298 300 310 311 311 314 330 339 327 322 321 319 322 324 315 283 260 254 267 293 305 306 305 300 281 250 251 263 266 276 293 302 301 226 186 184 171 172 184 176 172 189 191 237 232 190 209 213 183 205 264 258 283 264 229 215 214 218 223 220 210 211 223 226 213 235 229 140 126 138 144 149 155 156 166 165 164 176 174 163 162 168 174 175